SCP
0 0 0 0 0 0 0 0 0 0 0 0 0 0 0 0 0 0 0 0 0 0 0 0 0 0 0 0 0 0 0 0 0 0 0 0 0 0 0 0 0 0 0 0
0 0 0 0 0 0 0 0 0 0 0 0 0 0 0 0 0 0 0 0 0 0 0 0 0 0 0 0 0 0 0 0 0 0 0 0 0 0 0 0 0 0 0 0
0 0 0 0 0 0 0 0 0 0 0 0 0 0 0 0 0 0 0 0 0 0 0 0 0 0 0 0 0 0 0 0 0 0 0 0 0 0 0 0 0 0 0 0
0 0 0 0 0 0 0 0 0 0 0 0 0 0 0 0 0 0 0 0 0 0 0 0 0 0 0 0 0 0 0 0 0 0 0 0 0 0 0 0 0 0 0 0
0 0 0 0 0 0 0 0 0 0 0 0 0 0 0 0 0 0 0 0 0 0 0 0 0 0 0 0 0 0 0 0 0 0 0 0 0 0 0 0 0 0 0 0
0 0 0 0 0 0 0 0 0 0 0 0 0 0 0 0 0 0 0 0 0 0 0 0 0 0 0 0 0 0 0 0 0 0 0 0 0 0 0 0 0 0 0 0
0 0 0 0 0 0 0 0 0 0 0 0 0 0 0 0 0 0 0 0 0 0 0 0 0 0 0 0 0 0 0 0 0 0 0 0 0 0 0 0 0 0 0 0
0 0 0 0 0 0 0 0 0 0 0 0 0 0 0 0 0 0 0 0 0 0 0 0 0 0 0 0 0 0 0 0 0 0 0 0 0 0 0 0 0 0 0 0
0 0 0 0 0 0 0 0 0 0 0 0 0 0 0 0 0 0 0 0 0 0 0 0 0 0 0 0 0 0 0 0 0 0 0 0 0 0 0 0 0 0 0 0
0 0 0 0 0 0 0 0 0 0 0 0 0 0 0 0 0 0 0 0 0 0 0 0 0 0 0 0 0 0 0 0 0 0 0 0 0 0 0 0 0 0 0 0
0 0 0 0 0 0 0 0 0 0 0 0 0 0 0 0 0 0 0 0 0 0 0 0 0 0 0 0 0 0 0 0 0 0 0 0 0 0 0 0 0 0 0 0
0 0 0 0 0 0 0 0 0 0 0 0 0 0 0 0 0 0 0 0 0 0 0 0 0 0 0 0 0 0 0 0 0 0 0 0 0 0 0 0 0 0 0 0
0 0 0 0 0 0 0 0 0 0 0 0 0 0 0 0 0 0 0 0 0 0 0 0 0 0 0 0 0 0 0 0 0 0 0 0 0 0 0 0 0 0 0 0
0 0 0 0 0 0 0 0 0 0 0 0 0 0 0 0 0 0 0 0 0 0 0 0 0 0 0 0 0 0 0 0 0 0 0 0 0 0 0 0 0 0 0 0
0 0 0 0 0 0 0 0 0 0 0 0 0 0 0 0 0 0 0 0 0 0 0 0 0 0 0 0 0 0 0 0 0 0 0 0 0 0 0 0 0 0 0 0
0 0 0 0 0 0 0 0 0 0 0 0 0 0 0 0 0 -0 0 0 0 0 0 0 0 0 0 0 0 0 0 0 0 0 0 0 0 0 0 0 0 0 0 0
0 0 0 0 0 0 0 0 0 0 0 0 0 0 0 0 0 -0 0 0 0 0 0 0 0 0 0 0 0 0 0 0 0 0 0 0 0 0 0 0 0 0 0 0
0 0 0 0 0 0 0 0 0 0 0 0 0 0 0 0 0 0 0 0 0 0 0 0 0 0 0 0 0 0 0 0 0 0 0 0 0 0 0 0 0 0 0 0
0 0 0 0 0 0 0 0 0 0 0 0 0 0 0 0 0 0 0 0 0 0 0 0 0 0 0 0 0 0 0 0 0 0 0 0 0 0 0 0 0 0 0 0
0 0 0 0 0 0 0 0 0 0 0 0 0 0 0 0 0 0 0 0 0 0 0 0 0 0 0 0 0 0 0 0 0 0 0 0 0 0 0 0 0 0 0 0
0 0 0 0 0 0 0 0 0 0 0 0 0 0 0 0 0 0 0 0 0 0 0 0 0 0 0 0 0 0 0 0 0 0 0 0 0 0 0 0 0 0 0 0
0 0 0 0 0 0 0 0 0 0 0 0 0 0 0 0 0 0 0 0 0 0 0 0 0 0 0 0 0 0 0 0 0 0 0 0 0 0 0 0 0 0 0 0
0 0 0 0 0 0 0 0 0 0 0 0 0 0 0 0 0 0 0 0 0 0 0 0 0 0 0 0 0 0 0 0 0 0 0 0 0 0 0 0 0 0 0 0
0 0 0 0 0 0 0 0 0 0 0 0 0 0 0 0 0 0 0 0 0 0 0 0 0 0 0 0 0 0 0 0 0 0 0 0 0 0 0 0 0 0 0 0
0 0 0 0 0 0 0 0 0 0 0 0 0 0 0 0 0 0 0 0 0 0 0 0 0 0 0 0 0 0 0 0 0 0 0 0 0 0 0 0 0 0 0 0
0 0 0 0 0 0 0 0 0 0 0 0 0 0 0 0 0 0 0 0 0 0 0 0 0 0 0 0 0 0 0 0 0 0 0 0 0 0 0 0 0 0 0 0
0 0 0 0 0 0 0 0 0 0 0 0 0 0 0 0 0 0 0 0 0 0 0 0 0 0 0 0 0 0 0 0 0 0 0 0 0 0 0 0 0 0 0 0
Wind_Speed
3 3 4 4 4 5 5 4 4 3 3 5 6 6 7 7 7 6 7 7 7 6 5 5 6 6 6 7 7 7 7 7 7 6 6 6 7 6 6 7 7 6 6 6
2 3 5 4 4 5 4 3 3 1 3 5 5 4 5 6 6 6 7 7 7 6 5 4 5 5 5 6 6 6 7 7 7 7 7 7 7 7 7 7 7 7 7 6
2 3 2 1 3 3 3 3 4 4 5 3 2 4 4 4 4 4 6 6 6 6 4 3 2 3 4 4 5 6 6 7 7 7 7 7 7 7 7 6 6 6 6 5
3 3 2 5 3 5 5 4 5 4 4 3 4 3 4 3 2 4 5 6 6 6 5 2 2 2 3 4 5 5 6 6 6 6 7 6 7 7 6 4 4 4 5 5
4 2 1 2 4 5 5 3 5 4 3 2 2 2 5 4 2 3 4 4 4 4 2 2 1 2 3 4 4 5 5 5 5 6 6 7 7 6 5 4 5 4 4 6
4 3 5 8 6 5 4 2 5 5 3 3 3 2 4 5 3 4 4 4 4 4 3 3 1 2 3 2 3 3 3 3 4 5 6 6 6 5 5 5 5 5 6 6
3 3 6 4 6 7 4 8 5 6 5 4 4 5 5 4 3 3 4 4 4 4 4 2 0 2 2 1 1 1 3 4 4 4 5 5 5 5 5 6 6 6 6 6
4 3 7 5 8 8 9 4 6 6 6 5 3 2 1 2 3 4 5 5 5 4 4 3 1 1 1 1 1 2 4 5 5 5 5 5 6 6 6 6 6 6 6 6
8 8 6 7 8 7 6 7 6 6 5 5 3 1 0 1 2 4 5 5 4 4 4 4 2 1 0 2 1 4 4 4 4 5 5 5 6 6 5 5 5 5 5 5
2 4 3 5 4 5 6 7 7 6 6 5 3 1 1 0 2 4 4 4 4 4 5 4 3 2 1 1 3 6 5 4 3 4 4 5 5 5 5 5 5 5 5 5
3 3 2 4 5 7 7 7 7 6 5 5 4 2 2 1 1 2 3 4 4 4 4 4 3 3 3 2 5 6 4 4 3 3 4 4 4 4 4 4 3 3 3 3
9 10 9 10 9 8 9 9 9 8 6 5 4 3 2 1 1 1 2 3 4 4 3 3 2 3 3 2 5 6 4 3 3 3 2 2 3 3 5 4 6 7 6 4
7 8 8 7 10 10 10 10 9 8 8 6 4 4 3 2 1 0 2 3 4 4 2 1 2 3 3 2 4 5 4 3 3 3 3 3 2 2 1 3 5 6 8 9
6 7 4 6 9 10 9 10 8 7 7 6 5 4 3 2 1 0 2 3 3 2 1 1 2 3 3 1 4 4 3 3 3 3 3 3 3 2 2 1 1 2 5 7
7 6 7 7 9 9 8 7 7 7 7 6 5 5 4 3 2 2 3 2 2 2 1 1 2 3 4 1 3 4 3 2 2 2 2 2 2 2 2 2 1 1 2 4
6 6 8 8 10 10 8 8 8 8 7 7 6 6 6 5 3 3 3 2 1 1 1 0 2 3 3 1 2 2 2 4 4 2 2 2 2 3 3 3 2 1 1 1
10 8 8 10 11 9 9 9 9 9 8 7 8 7 6 4 2 2 3 2 0 1 2 1 2 4 3 0 2 2 2 2 3 2 2 3 3 3 4 3 3 2 1 1
11 11 11 13 12 9 9 9 9 8 8 8 8 7 6 5 4 4 3 1 1 1 1 2 3 3 3 2 1 1 2 2 2 2 2 3 3 3 4 4 4 4 2 1
8 9 10 11 11 10 9 8 8 8 7 7 8 8 7 6 5 5 3 2 2 3 4 3 3 2 2 2 1 0 1 2 2 2 3 4 3 3 4 4 4 4 4 3
7 8 10 10 10 9 9 8 8 7 7 8 8 7 6 6 5 5 4 3 4 5 4 3 1 0 0 2 2 1 1 2 3 3 3 3 4 4 4 5 5 5 4 4
6 7 9 9 9 9 9 9 9 8 8 9 9 9 8 7 6 5 4 4 5 5 4 3 2 2 2 2 3 2 2 2 3 3 4 4 4 4 4 5 5 5 5 4
3 5 7 7 8 7 7 8 8 9 8 8 8 8 7 6 6 5 5 5 5 6 4 3 3 4 4 3 2 3 3 3 3 3 4 4 4 4 5 5 5 5 5 5
1 1 3 5 7 7 6 7 8 9 9 9 9 9 8 7 6 5 5 5 4 7 5 4 6 8 7 3 3 3 4 4 3 4 4 5 5 5 5 6 5 5 5 5
4 3 1 1 3 4 5 6 7 7 8 9 9 9 8 6 4 5 5 5 8 9 6 6 9 10 7 3 3 3 4 4 4 4 4 4 4 5 5 5 5 5 5 6
5 4 4 3 1 2 5 5 5 6 6 5 7 8 7 6 6 6 5 6 9 9 5 7 10 9 5 3 4 4 4 4 4 3 4 4 4 5 5 5 5 6 5 6
5 4 3 1 1 1 1 2 3 4 4 5 5 5 5 5 6 5 5 6 8 8 6 5 5 5 4 4 4 5 4 4 4 3 4 4 5 5 5 5 7 6 6 6
5 4 3 3 3 2 1 1 2 4 5 6 6 6 6 6 5 6 6 5 5 5 5 5 5 5 4 4 5 5 4 4 4 3 3 3 4 4 5 6 5 5 5 6
Wind_Direction
158 155 121 107 87 71 80 125 138 199 254 273 284 290 300 307 316 334 341 345 350 354 352 358 10 15 17 18 18 22 30 30 25 24 28 34 38 43 46 49 55 56 58 50
121 138 117 98 106 103 96 111 132 195 267 258 274 292 303 311 323 343 345 350 355 360 5 16 23 21 24 23 19 26 33 31 29 33 36 37 39 47 54 53 54 57 59 56
180 179 101 73 190 157 150 174 174 203 242 258 289 304 306 312 331 338 340 343 347 353 3 22 35 39 39 30 29 35 34 31 30 35 38 35 42 46 48 49 52 56 52 49
130 134 251 249 216 157 158 199 208 219 240 233 231 262 288 295 320 339 339 341 340 344 355 10 40 43 48 41 39 37 33 30 31 36 36 32 37 40 39 42 47 49 44 38
115 147 275 261 202 175 168 224 218 207 230 219 213 5 328 306 309 312 317 325 322 326 344 18 58 84 75 48 38 39 34 33 32 39 41 38 37 32 28 37 40 41 38 34
122 155 231 238 206 162 119 248 236 185 179 162 108 63 284 293 314 333 334 329 334 345 7 24 36 124 96 63 44 41 44 50 46 45 48 43 38 34 32 41 41 46 43 34
164 212 255 241 148 120 159 230 198 165 162 153 168 203 244 293 337 345 337 333 348 2 2 345 287 138 112 81 359 35 67 69 57 53 56 49 41 34 35 39 41 40 39 27
165 202 251 189 140 176 211 177 150 152 160 161 186 220 279 354 356 355 346 342 352 360 349 337 332 142 135 268 261 90 84 76 59 48 52 51 48 39 34 36 40 32 27 18
185 211 232 179 186 197 155 148 155 158 165 155 151 169 11 6 353 350 348 344 344 352 351 350 352 141 216 280 146 114 102 91 74 63 52 47 50 45 37 33 37 30 27 20
203 256 204 187 169 152 155 155 161 158 155 148 152 152 99 10 342 347 344 340 341 356 3 352 343 347 321 331 126 124 121 119 104 85 66 50 45 44 46 35 32 30 27 16
214 232 177 222 192 163 151 146 148 151 152 157 154 146 153 202 325 338 339 336 347 355 354 347 350 0 5 61 116 120 125 130 125 106 96 74 59 44 42 31 24 27 12 3
209 199 179 205 199 169 153 161 161 159 164 169 165 171 163 199 277 320 340 345 354 354 356 357 11 13 18 69 122 127 129 140 148 142 126 113 100 61 28 25 21 26 27 23
192 178 181 187 179 172 165 170 170 169 173 180 184 176 163 185 229 301 350 353 345 337 341 9 22 13 11 69 123 132 144 152 152 160 163 163 158 137 64 355 3 13 17 26
156 132 150 167 175 175 168 170 169 172 179 179 179 175 160 159 176 275 311 316 331 352 22 48 31 4 349 72 127 132 142 148 145 155 168 177 184 183 172 147 4 347 355 15
168 160 166 164 160 165 163 159 162 174 178 179 178 175 171 175 205 249 276 304 2 26 27 48 22 349 344 39 140 152 151 156 150 150 157 159 158 152 148 137 104 32 6 6
169 146 143 148 164 169 165 169 174 185 186 187 188 191 193 195 213 251 273 294 352 329 281 245 336 325 332 5 150 164 187 187 167 158 156 157 152 144 141 139 131 108 62 5
152 165 170 174 177 179 178 178 180 186 188 192 197 195 191 192 209 250 262 285 271 200 183 221 304 317 332 58 175 193 209 215 191 163 174 177 169 164 162 160 161 167 202 234
186 183 178 179 180 182 186 184 184 185 190 197 190 181 182 187 204 223 237 221 112 137 242 273 308 336 13 48 126 184 203 223 217 201 199 191 181 174 167 170 176 181 203 213
184 177 177 180 181 180 183 187 190 193 193 183 176 181 188 194 200 211 207 182 183 228 254 276 326 29 41 33 55 198 232 233 226 218 202 193 182 176 176 179 185 190 189 190
183 181 180 183 184 181 188 191 187 186 185 175 173 178 188 200 201 202 199 209 221 221 232 254 265 173 276 327 348 293 262 240 227 219 207 199 197 198 193 190 188 188 189 189
180 183 184 185 189 191 190 187 183 186 184 176 176 185 195 203 200 190 187 225 248 227 230 246 204 206 246 288 315 291 274 256 236 219 211 209 208 206 201 196 191 190 192 191
174 183 189 189 190 196 197 188 184 184 180 184 188 187 187 197 201 202 212 216 230 218 213 227 222 233 250 279 285 281 273 264 251 230 216 209 206 206 206 202 199 197 195 192
48 178 194 195 194 198 194 189 187 182 182 186 187 187 190 196 189 187 227 234 222 214 206 223 231 243 260 270 273 278 274 266 254 237 223 213 208 204 203 203 200 196 192 192
32 27 349 228 179 175 191 202 196 192 192 192 193 190 185 188 210 217 214 218 206 207 208 228 240 252 264 255 262 271 274 269 259 244 230 219 212 207 204 200 199 198 195 193
21 21 26 41 98 214 219 211 201 201 196 202 208 204 196 189 196 209 204 213 218 214 219 236 246 256 257 248 254 259 262 264 262 248 230 220 214 210 208 202 200 198 196 197
8 4 354 333 274 260 239 204 205 209 200 207 218 214 208 205 205 202 201 210 214 208 210 226 239 250 247 250 252 252 254 265 275 262 243 231 220 213 211 209 206 202 201 201
350 353 353 350 342 334 310 219 222 226 214 209 217 217 209 204 201 203 205 207 208 209 215 222 228 233 239 245 249 251 250 252 257 255 247 237 227 219 216 213 209 206 203 202